User: anonymous   Login
Location: Unspecified
(0.0000°N, 0.0000°E)
Time: 02:12:20
(UTC+00:00)
Language:

STARLINK-2303 - Orbit

View from above orbital plane
View from above orbital plane
View from above satellite
View from above satellite

Ground track
Ground track

The orbit is defined by the following mean orbital elements,

1 47981U          26145.50499118 +.00000000 +00000-0 -52992-4 0 00009
2 47981  53.1596 335.1771 0001118  89.6763 270.4367 15.31696110    09
Epoch (UTC): 25 May 2026 12:07:11
Eccentricity: 0.0001118
inclination: 53.1596°
perigee height: 470 km
apogee height: 472 km
right ascension of ascending node: 335.1771°
argument of perigee: 89.6763°
revolutions per day: 15.31696110
mean anomaly at epoch: 270.4367°

The dashed part of the orbit path shows where the satellite is in the earth's shadow,  

DLR